Wind_Speed
22 22 22 23 23 24 24 25 25 25 25 25 25 25 25 26 26 27 27 28 29 30 30 31 32 33 34 35 35 36 37 38 39 41 42 43 44 45 46 46 47 47 47 47 46 47 48 49 50 52 53 53 54 54 54 54 54 53 52 51 51 50 50 50 51 52 53 54 55 56 57 57 57 57 56 55 55 55 54 54 54 53 53 52 51 50
20 21 21 22 22 23 23 24 24 24 24 24 24 25 25 26 26 27 28 28 29 30 30 31 32 33 34 35 36 37 38 39 40 42 43 44 45 46 47 48 48 48 47 47 47 48 49 51 52 53 54 54 55 55 55 54 54 53 52 51 51 51 51 52 53 54 55 56 56 57 57 57 56 56 55 55 54 54 54 53 53 52 51 51 49 48
20 21 21 22 22 23 23 24 24 25 25 25 25 26 26 26 27 28 28 29 30 31 32 32 33 34 35 36 37 38 39 40 41 42 43 44 45 46 47 47 47 47 47 47 48 50 51 52 53 54 55 55 55 55 55 54 53 53 52 52 52 52 53 53 54 55 56 56 56 56 56 55 55 54 54 54 54 53 53 52 52 51 50 49 48 46
20 21 22 23 23 23 24 24 24 25 25 26 26 27 27 28 29 29 30 31 32 32 33 33 33 34 35 37 38 39 40 41 41 42 43 44 44 45 45 46 46 47 48 49 50 52 53 54 55 56 56 56 56 55 55 54 53 53 53 53 53 54 54 55 55 55 55 55 55 55 54 54 54 54 53 53 53 52 51 51 50 49 48 47 46 45
22 22 23 23 24 24 25 25 25 25 26 26 27 28 29 30 31 31 32 32 32 32 33 33 33 34 36 37 39 40 41 41 41 41 42 42 43 44 45 46 47 48 50 52 54 55 56 57 57 57 57 56 55 55 54 54 53 53 54 54 54 54 54 54 54 54 54 54 54 54 54 53 53 53 52 52 51 50 50 49 48 47 46 45 44 43
24 24 24 25 25 25 26 26 26 27 27 28 28 29 30 31 32 32 32 32 32 32 32 33 35 36 37 38 39 40 41 42 42 42 43 44 45 46 47 48 50 52 53 55 56 57 58 58 58 57 56 55 55 54 54 54 54 54 54 54 54 54 54 53 53 53 53 53 53 53 53 53 53 52 51 50 50 49 48 47 46 45 44 43 42 41
26 26 26 27 27 27 27 28 28 29 28 29 30 31 32 32 32 33 33 33 33 33 33 35 37 38 39 40 41 42 43 44 44 45 46 47 48 49 50 52 53 55 56 57 58 58 58 58 57 56 55 55 54 54 54 54 54 54 54 53 53 53 53 53 53 53 53 53 53 53 52 52 51 51 50 49 48 47 46 45 44 43 42 41 40 39
28 28 29 29 29 29 30 30 31 31 30 30 31 32 33 34 34 35 35 35 35 35 36 37 39 40 41 42 43 44 45 46 47 48 49 50 51 52 53 54 55 56 57 57 58 57 57 56 55 55 54 54 54 54 54 54 54 53 53 52 52 52 52 52 52 52 52 52 52 52 51 51 50 49 48 47 46 45 44 43 42 41 40 39 38 38
29 30 30 31 31 31 31 32 33 33 33 33 33 33 34 35 36 37 37 38 38 38 39 39 41 42 43 44 45 47 48 49 50 50 51 52 53 54 54 55 56 56 56 56 56 55 55 54 54 54 54 54 54 54 54 53 53 52 52 52 52 52 52 52 52 52 52 51 51 50 50 49 48 47 46 45 44 43 42 41 40 39 39 38 37 36
31 31 31 32 32 32 32 33 34 35 35 35 36 36 36 37 37 38 39 40 40 40 41 41 42 43 44 45 46 47 48 49 50 51 51 52 53 54 54 55 55 55 54 54 53 53 53 53 53 53 53 53 53 53 53 52 52 52 52 52 52 52 52 52 52 51 51 50 49 49 48 47 46 45 44 43 42 41 40 39 39 38 37 37 36 36
32 33 33 33 33 34 34 34 35 36 36 37 37 38 38 38 38 39 40 40 41 41 42 43 43 44 45 45 46 47 47 49 50 51 51 52 52 53 53 53 52 52 51 51 51 51 51 52 52 52 52 52 52 52 52 52 52 52 52 52 52 52 52 51 51 50 50 49 48 47 46 45 44 43 42 41 40 39 39 38 37 37 36 36 35 35
34 34 34 34 34 34 35 35 36 37 37 37 38 38 38 38 38 39 39 40 41 41 42 43 44 45 45 46 47 47 48 48 49 50 50 51 51 50 50 50 50 50 49 49 50 50 51 51 51 52 52 52 52 52 52 52 52 52 52 52 52 51 51 50 50 49 48 47 46 45 44 43 42 41 40 39 38 37 37 36 36 36 35 35 35 35
35 35 35 35 35 35 35 36 36 37 37 37 37 37 37 38 38 38 39 40 41 41 42 43 44 45 45 46 46 47 47 48 48 48 48 48 48 48 48 48 48 48 48 49 49 50 51 51 51 51 52 51 52 52 52 52 52 52 52 52 51 51 50 49 48 47 46 45 44 43 41 40 39 38 38 37 36 36 36 36 35 35 35 35 35 34
36 36 36 35 36 36 36 36 36 37 37 37 37 37 37 38 38 39 40 41 42 42 42 43 44 45 45 45 45 46 46 46 46 46 46 46 46 46 46 47 48 48 48 48 49 50 50 50 51 51 51 51 52 52 52 52 52 52 51 51 50 49 48 47 46 45 44 43 42 40 39 38 37 37 36 36 35 35 35 35 35 34 34 34 34 34
35 35 35 35 35 36 36 36 36 37 37 37 37 37 38 38 39 39 40 41 42 42 42 43 43 44 43 43 43 43 44 44 44 44 44 45 45 45 45 46 47 48 48 48 49 50 50 50 50 51 51 51 52 52 51 51 51 51 50 49 48 47 46 45 44 43 42 40 39 38 37 36 36 35 35 35 35 34 34 34 34 34 34 34 34 33
34 34 34 34 35 35 35 35 36 36 36 37 37 37 38 38 39 39 39 40 41 41 41 41 41 41 42 41 41 41 42 43 44 44 43 44 45 45 45 45 47 48 48 48 48 49 50 50 51 51 51 51 51 51 50 50 49 49 48 47 46 45 44 43 41 40 39 38 37 36 36 35 35 35 34 34 34 34 34 33 33 33 33 33 33 33
33 33 34 34 34 34 35 35 35 35 36 36 36 37 37 37 38 38 38 39 39 39 39 38 39 40 41 41 41 41 41 42 44 44 43 44 44 45 45 45 46 48 48 48 48 49 49 50 50 50 50 49 49 49 48 48 47 46 45 44 43 42 41 40 39 38 37 36 36 35 35 34 34 34 34 34 33 33 33 33 33 33 33 33 34 34
32 33 33 33 33 34 34 34 34 35 35 35 35 36 36 36 37 37 37 37 37 37 37 38 38 39 40 41 42 42 41 41 42 43 43 43 44 44 44 45 46 47 48 48 48 48 49 49 49 49 48 47 47 46 46 45 44 43 42 41 40 39 38 37 36 36 35 35 34 34 34 34 33 33 33 33 33 33 33 33 33 33 34 34 34 34
32 32 32 32 33 33 33 33 33 34 34 34 34 34 35 35 35 35 36 36 36 37 37 38 39 39 40 40 42 42 41 40 41 42 43 43 44 44 44 44 45 46 47 47 47 47 47 48 47 46 45 45 44 44 43 42 41 40 39 38 37 36 36 35 34 34 34 33 33 33 33 33 33 33 33 33 33 33 33 33 33 34 34 34 34 35
31 31 32 32 32 32 32 33 33 33 33 33 33 34 34 34 35 35 35 36 36 37 37 37 38 39 39 39 40 41 40 39 40 41 42 43 43 44 44 44 44 45 46 46 45 45 45 45 45 44 42 42 41 41 40 39 38 37 36 36 35 34 34 33 33 33 32 32 32 32 32 32 32 32 33 33 33 33 34 34 34 34 34 35 35 35
31 31 31 31 31 31 32 32 32 32 32 33 33 33 33 34 34 34 35 35 35 36 36 36 37 37 38 38 39 39 39 39 39 41 42 43 43 43 43 43 43 44 44 44 43 42 42 42 42 41 39 38 38 37 36 36 35 35 34 34 33 33 32 32 32 32 32 32 31 32 32 32 33 33 33 34 34 34 35 35 35 35 35 36 36 36
30 30 30 30 30 30 31 31 31 31 31 31 32 32 32 32 33 33 33 34 34 34 35 36 36 37 37 37 38 39 39 39 39 40 41 42 43 43 42 41 41 42 42 41 40 39 39 38 38 37 36 35 35 34 34 33 33 33 32 32 32 32 31 31 31 31 31 31 32 32 33 33 34 34 35 35 35 35 36 36 36 36 36 36 36 36
29 29 29 29 29 29 30 30 30 30 30 30 31 31 31 31 31 32 32 33 33 34 34 35 36 36 37 37 38 39 39 39 40 40 41 41 41 41 40 39 39 39 39 38 36 35 35 35 34 33 32 32 32 32 32 32 32 31 31 31 31 31 31 31 31 31 32 32 33 34 34 35 35 35 36 36 36 37 37 37 37 37 37 37 37 37
28 28 28 28 28 28 29 29 29 29 29 29 29 30 30 30 31 31 32 32 33 33 34 35 36 37 37 37 38 39 40 40 40 39 40 40 40 39 38 37 36 36 36 34 32 31 31 31 31 30 29 29 30 30 31 31 31 31 31 31 31 31 31 32 32 33 33 34 34 35 35 36 36 37 37 37 37 37 37 37 37 37 37 37 37 36
27 27 28 28 28 28 28 28 28 28 28 28 29 30 30 30 31 31 32 33 33 34 34 35 36 37 37 38 38 39 40 40 39 38 38 38 38 37 36 35 34 34 34 32 29 27 27 28 28 28 27 27 28 29 30 30 30 30 30 31 31 32 32 33 33 34 35 35 36 36 36 37 37 37 37 37 37 37 38 37 37 37 37 36 36 36
27 27 27 28 28 28 28 28 28 28 28 28 29 30 30 31 31 32 33 33 33 34 34 35 36 37 37 37 38 39 39 38 37 36 36 36 36 36 34 32 31 31 31 29 27 25 24 25 25 26 25 26 27 28 29 30 30 30 31 31 32 33 33 34 34 35 35 36 36 37 37 37 37 37 37 37 37 37 37 37 36 36 36 36 35 35
27 27 27 28 28 28 28 28 28 28 28 29 29 30 30 31 31 32 33 33 33 33 34 35 36 36 36 37 37 38 37 36 35 34 34 33 34 33 32 30 29 29 28 27 25 23 22 22 23 24 24 25 26 27 28 29 30 31 31 32 33 34 34 35 35 35 36 36 36 36 36 36 36 36 36 36 36 35 35 35 35 35 35 35 34 34
26 27 27 27 27 27 27 27 27 28 28 29 30 30 31 31 31 32 33 33 33 33 34 35 35 35 35 36 36 36 35 34 33 32 32 32 31 31 30 29 28 27 26 25 23 22 21 20 21 22 23 24 25 26 27 28 30 31 32 32 33 34 34 34 35 35 35 35 35 35 35 35 35 35 34 34 34 34 34 34 34 34 34 34 34 34
26 26 26 27 27 27 27 27 27 28 28 29 30 30 31 31 31 32 33 33 33 33 33 34 34 33 33 34 34 34 33 31 30 30 30 30 29 29 28 27 27 27 25 24 22 21 19 19 19 20 22 23 25 26 27 28 29 30 31 32 33 33 33 34 34 34 34 34 34 34 34 33 33 33 33 32 32 32 32 32 33 33 33 33 33 34
25 25 25 26 26 26 26 27 27 28 28 29 30 30 31 31 31 32 33 33 32 32 32 32 32 32 31 31 32 31 30 29 28 28 28 28 27 27 26 26 26 26 25 24 22 21 19 18 18 19 21 23 25 26 27 28 29 30 31 31 32 32 32 33 33 33 33 33 33 32 32 32 32 31 31 31 31 31 31 32 32 33 33 33 34 34
23 24 24 25 25 26 26 27 27 28 28 29 30 30 31 31 31 32 32 32 31 31 31 31 30 30 29 29 29 28 28 27 26 26 26 26 26 26 25 24 25 25 25 24 23 23 22 20 20 20 21 23 25 27 28 28 29 30 30 31 31 31 31 32 32 32 32 32 32 31 31 31 30 30 30 30 30 31 31 32 32 33 33 34 34 34
23 24 24 25 25 26 26 27 27 28 29 29 30 31 31 31 31 31 31 30 30 29 29 29 28 28 27 26 26 26 26 25 25 24 24 24 25 25 24 23 24 25 25 24 24 24 24 24 23 22 22 23 25 26 28 29 29 29 30 30 30 30 31 31 31 31 31 31 31 30 30 30 29 29 29 29 30 30 31 32 32 33 34 34 35 35
23 24 25 25 26 26 27 27 28 28 29 30 30 31 31 31 31 30 29 29 28 28 27 26 26 26 25 25 25 25 25 24 24 23 23 23 23 23 23 23 23 24 25 25 25 25 26 26 25 25 24 24 24 26 27 28 29 29 29 30 30 30 30 30 30 30 30 30 29 29 29 28 28 28 29 29 30 30 31 32 32 33 34 35 35 35
24 25 25 26 26 27 27 28 28 29 29 30 30 30 30 29 29 28 27 27 26 26 25 25 24 24 24 24 24 24 24 23 23 23 23 22 22 23 23 23 23 24 25 25 26 26 26 27 27 27 26 25 25 25 27 28 29 29 29 29 30 30 30 30 30 29 29 29 28 28 27 27 27 28 28 29 29 30 30 31 32 33 34 34 35 35
25 26 26 27 27 28 28 28 28 29 29 29 29 29 28 27 26 25 25 25 24 24 23 23 23 22 22 22 22 23 22 22 22 22 22 22 22 22 23 23 24 24 25 26 27 27 27 27 28 27 27 26 26 26 27 28 28 29 29 30 30 30 30 30 29 29 28 28 27 27 26 26 27 27 27 28 29 29 30 31 31 32 33 34 35 35
26 27 27 27 28 28 28 28 28 28 28 27 27 27 26 25 24 23 23 23 23 22 22 22 22 21 21 21 21 21 21 21 21 22 22 22 22 23 23 24 24 25 26 27 27 27 27 28 28 28 28 27 27 27 27 28 28 29 30 30 30 30 30 30 30 29 28 27 27 26 26 26 26 27 27 28 28 29 29 30 30 31 32 33 33 34
27 27 28 27 27 27 27 27 27 26 26 26 25 24 23 23 22 22 22 21 21 21 21 21 21 21 20 20 20 20 21 21 21 21 22 22 22 23 24 25 25 26 26 27 27 28 28 28 28 28 28 28 28 28 28 28 28 29 29 30 30 30 30 30 30 29 28 28 27 26 26 26 26 26 27 27 28 28 29 29 30 30 31 31 32 33
27 27 27 27 26 26 26 26 25 24 24 24 23 22 22 21 21 21 20 20 20 20 20 20 20 19 19 19 20 20 20 21 21 22 22 22 23 24 25 25 26 26 26 27 27 28 28 28 28 28 28 28 28 29 29 29 29 29 29 30 30 30 30 30 30 29 29 28 27 27 26 26 26 27 27 27 28 28 28 28 29 30 30 31 31 31
26 26 26 26 25 25 24 23 23 22 22 22 21 21 20 20 20 19 19 19 19 19 19 19 18 18 19 19 19 20 20 21 21 22 23 23 24 24 25 25 26 26 26 26 27 27 28 28 28 29 29 29 28 28 29 29 30 30 30 30 30 30 30 30 30 30 29 28 28 27 27 27 27 27 27 27 28 28 28 28 29 29 30 30 30 30
25 25 25 24 23 23 22 22 21 21 21 20 20 20 19 19 19 18 18 18 18 18 18 18 18 18 18 19 19 20 21 21 22 23 23 24 24 25 25 25 25 26 26 26 26 27 27 28 28 29 29 29 29 29 29 29 30 30 30 30 30 30 30 30 30 30 29 29 28 28 27 27 27 27 27 28 28 28 28 29 29 29 30 30 30 30
24 24 23 22 22 21 21 20 20 20 19 19 19 18 18 18 18 17 17 17 17 17 17 17 18 18 18 19 19 20 21 22 22 23 23 24 24 24 25 25 25 25 25 26 26 26 27 27 28 29 29 29 29 29 29 29 30 30 31 31 31 30 30 30 30 30 30 29 29 29 29 28 28 28 28 28 28 28 29 29 29 30 30 31 31 31
22 22 21 21 20 20 19 19 19 18 18 18 18 18 17 17 17 17 16 17 17 17 17 17 18 18 19 19 20 21 21 22 23 23 23 24 24 24 25 25 25 25 25 26 26 26 27 27 28 29 29 29 29 29 29 30 30 31 31 31 31 31 31 30 30 30 30 30 30 30 30 29 29 29 29 28 28 29 29 29 30 30 31 31 31 32
20 20 20 19 19 18 18 18 17 17 17 17 17 17 17 16 16 16 16 16 16 17 17 18 18 19 19 20 21 22 22 23 23 24 24 25 25 25 26 26 26 26 26 26 26 26 27 28 29 29 30 30 30 30 30 30 30 31 31 32 32 32 32 31 31 31 30 30 30 30 30 30 30 30 30 29 29 29 29 29 30 30 31 31 31 31
19 19 18 18 18 17 17 17 17 17 16 16 16 16 16 16 16 16 15 16 16 17 17 18 19 19 20 21 22 22 23 24 24 25 26 26 27 27 27 27 27 27 27 27 27 27 28 28 29 29 30 30 30 30 30 30 30 31 31 32 33 33 33 32 32 31 31 30 30 31 31 31 31 31 30 30 30 29 29 29 30 30 30 31 31 31
18 18 17 17 17 16 16 16 16 16 16 16 16 16 16 16 16 15 16 16 16 17 17 18 19 19 20 21 21 22 23 24 24 25 26 27 27 27 28 28 28 28 28 28 28 28 28 29 29 29 30 30 30 30 30 31 31 31 32 32 33 33 33 33 32 32 31 31 31 31 31 32 32 32 31 30 30 29 29 30 30 30 30 31 31 31
17 16 16 16 16 16 15 15 15 15 15 15 15 15 15 15 16 16 16 16 17 17 18 19 19 20 20 21 21 22 22 23 24 25 25 26 27 27 27 28 28 28 28 28 28 29 29 29 29 29 29 29 29 30 30 31 31 32 32 33 33 33 33 32 32 32 31 31 31 31 32 32 33 32 32 31 30 30 30 30 30 30 30 30 30 30
16 16 15 15 15 15 15 15 15 15 15 15 15 15 15 15 16 16 17 17 17 18 18 19 20 20 21 21 21 22 22 23 24 24 25 26 26 27 27 28 28 28 28 28 28 29 29 29 29 29 29 29 29 29 30 30 31 32 33 33 33 33 32 32 31 31 31 31 31 32 32 33 33 33 33 32 31 30 30 29 29 30 30 30 30 30
15 15 15 15 15 14 15 15 14 14 14 14 14 14 15 15 16 16 17 18 18 19 19 20 20 20 21 21 22 22 23 23 24 24 25 26 26 27 27 27 27 28 28 28 28 28 28 28 28 28 28 28 28 28 29 30 31 32 33 33 33 33 32 32 31 31 31 31 31 32 32 33 34 34 34 33 32 31 30 29 29 29 30 30 30 30
15 15 14 14 14 14 14 14 14 14 14 14 14 14 15 16 16 17 17 18 19 19 20 20 20 21 21 22 22 23 23 24 24 25 25 26 26 27 27 27 27 27 27 27 28 28 28 28 27 27 27 28 28 28 28 29 30 31 32 33 33 33 32 32 31 31 31 31 31 31 32 33 34 34 34 34 33 32 30 29 29 29 29 30 30 30
15 14 14 14 14 14 14 14 14 14 14 14 14 15 15 16 17 17 18 18 19 20 20 20 21 21 22 22 23 23 24 24 25 25 26 26 26 26 27 27 27 27 27 27 27 27 27 27 27 26 27 27 27 27 28 29 30 31 32 32 33 33 33 32 31 31 31 31 31 31 32 33 33 34 35 35 34 33 31 29 29 29 29 30 30 31
14 14 14 14 14 14 14 14 14 14 15 15 15 16 16 17 17 18 19 19 19 20 20 21 21 22 22 23 23 24 24 24 25 25 25 26 26 26 26 26 26 26 27 27 27 27 27 26 25 25 25 26 26 27 28 28 29 30 31 32 32 33 33 32 32 31 31 31 31 32 32 33 33 34 34 35 34 33 32 30 29 29 30 30 31 31
Wind_Direction
248 249 251 252 252 253 254 255 256 257 259 260 260 260 260 259 259 259 259 260 260 260 261 262 262 263 264 264 264 264 264 264 265 267 269 271 273 276 278 279 281 282 283 283 284 285 286 288 290 292 294 295 296 297 297 297 298 297 297 296 295 294 294 293 293 294 294 294 295 295 296 296 296 297 297 297 297 296 296 296 296 295 295 295 294 294
251 253 254 255 256 256 256 257 258 259 260 260 260 259 258 258 258 258 259 260 260 261 262 263 265 266 266 266 266 265 265 265 266 267 269 271 272 274 275 276 277 278 279 280 282 284 286 289 291 292 294 295 295 296 296 296 296 296 296 295 294 294 293 293 293 293 294 294 295 295 296 296 296 296 297 297 296 296 296 296 296 295 295 294 294 293
256 258 258 259 259 259 259 260 261 262 261 261 260 260 259 260 261 261 262 263 263 264 265 266 268 269 270 270 269 267 267 267 268 269 270 271 272 272 273 274 275 277 279 281 284 286 288 290 292 293 293 294 294 295 295 295 295 295 295 294 294 294 293 293 293 293 294 294 295 295 296 296 296 296 296 296 296 296 296 295 295 294 294 293 293 292
260 261 262 263 263 264 264 265 265 265 265 264 263 263 263 264 265 267 268 268 269 269 269 270 270 271 271 272 271 270 268 267 267 268 269 270 271 272 273 274 277 279 282 285 288 290 291 292 293 293 293 294 294 294 294 294 295 295 294 294 294 294 294 294 294 294 294 295 295 295 296 296 296 296 296 296 296 295 295 295 294 294 293 292 292 291
264 265 266 267 268 269 270 270 271 270 270 269 268 267 267 268 271 273 275 275 275 274 274 273 270 268 268 268 269 269 268 268 268 269 270 271 272 274 276 279 281 284 287 289 290 291 292 293 293 293 293 293 293 293 293 293 294 294 294 294 294 294 294 294 295 295 295 295 296 296 296 296 296 296 296 296 295 295 294 294 293 292 292 291 290 289
269 270 270 271 272 273 274 275 276 276 275 274 273 273 272 273 274 275 276 276 275 274 273 271 268 266 265 265 266 268 269 270 272 273 274 276 278 279 282 284 286 287 289 290 290 291 291 292 292 292 292 292 292 292 292 293 293 294 294 295 295 295 295 295 296 296 296 296 296 297 297 296 296 296 296 295 295 294 293 293 292 291 290 290 289 288
273 274 275 275 276 276 277 278 278 279 278 276 275 275 275 275 275 274 273 273 272 270 268 267 266 266 266 266 267 269 270 272 274 276 278 280 282 283 285 286 287 288 288 289 290 290 290 291 291 291 291 291 291 292 292 293 294 294 295 295 295 296 296 296 296 296 297 297 297 297 296 296 296 296 295 295 294 293 292 292 291 290 289 289 288 287
276 278 278 278 279 279 279 279 279 279 278 276 273 272 272 273 273 272 271 271 270 269 267 267 266 267 267 268 270 271 272 274 276 277 279 281 282 283 285 285 286 287 288 288 289 289 289 289 289 289 290 290 291 292 293 294 294 295 296 296 296 296 296 297 297 297 297 297 297 296 296 296 295 295 294 294 293 292 291 291 290 289 289 288 287 287
278 279 280 280 279 279 279 279 279 279 278 276 273 271 269 270 271 271 271 271 271 270 270 270 269 269 269 270 271 273 274 275 276 277 279 280 281 282 283 284 285 286 287 287 287 288 288 288 288 289 290 291 292 293 294 295 295 296 296 296 296 296 297 297 297 297 297 296 296 296 296 295 295 294 293 293 292 291 291 290 289 289 288 287 287 286
279 279 279 279 279 278 278 278 277 277 277 275 274 273 271 271 270 271 271 271 271 272 272 272 272 272 273 273 273 274 275 276 277 278 279 280 281 282 283 284 285 285 286 286 287 287 288 288 289 290 291 292 293 294 295 295 296 296 296 297 297 297 297 297 297 297 296 296 296 296 295 295 294 293 293 292 291 291 290 289 289 288 288 287 286 286
279 279 278 278 278 277 276 275 275 275 275 275 275 274 273 272 271 271 271 271 272 272 273 273 274 275 275 276 276 276 277 278 278 279 280 281 282 283 283 284 285 285 286 287 287 288 289 290 291 292 293 294 295 295 296 296 297 297 297 297 297 297 297 297 297 297 297 296 296 295 295 294 293 293 292 291 291 290 290 289 288 288 287 287 286 286
277 278 277 277 276 276 275 275 274 274 274 274 274 274 274 273 272 272 272 272 272 272 273 274 275 276 277 278 279 279 279 280 280 281 281 282 283 283 284 285 285 286 287 289 290 291 292 293 294 294 295 296 296 297 297 297 297 297 297 297 297 297 297 297 297 297 297 296 296 295 294 294 293 292 292 291 290 290 289 289 288 288 288 287 287 286
277 277 277 276 275 275 274 274 274 274 274 274 274 274 274 274 273 273 273 273 273 273 274 275 276 277 278 279 280 280 281 281 281 282 282 283 283 284 285 286 288 289 291 292 293 293 294 295 296 296 297 297 297 297 297 297 297 298 298 298 298 298 298 298 297 297 297 296 295 295 294 293 292 292 291 291 290 290 289 289 289 288 288 287 286 285
275 275 275 275 274 274 274 274 274 274 275 275 275 275 275 275 274 274 274 274 275 275 276 276 277 278 279 280 280 281 282 282 282 283 284 284 285 286 288 289 291 292 293 294 295 295 296 296 297 297 297 297 297 298 298 298 298 298 298 298 298 298 298 298 297 297 296 296 295 294 294 293 292 292 291 291 291 290 290 290 289 289 288 287 286 285
273 273 273 273 273 273 274 274 274 275 275 275 276 276 275 275 275 275 275 275 276 276 277 277 278 279 280 280 280 281 282 283 284 285 286 287 288 289 291 292 293 294 295 295 296 296 296 297 297 297 297 297 297 298 298 298 298 298 298 298 298 298 298 297 297 296 296 295 295 294 294 293 293 292 292 292 292 291 291 290 290 289 288 287 286 285
271 271 271 271 272 272 273 273 274 274 274 275 275 275 275 275 275 275 275 276 276 277 278 278 279 280 280 281 281 282 284 285 287 288 289 290 291 292 293 294 295 295 296 296 296 296 296 297 297 297 297 297 297 297 298 298 298 298 298 298 298 297 297 297 296 296 295 295 295 294 294 294 294 294 294 293 293 292 292 291 290 289 288 287 286 285
269 269 270 270 271 271 272 273 273 273 273 274 274 274 274 275 275 275 275 276 277 278 279 279 280 281 282 283 284 285 286 288 289 290 292 293 293 294 295 295 295 295 295 296 296 296 296 296 296 296 297 297 297 297 297 297 297 297 297 297 297 297 296 296 296 295 295 295 295 295 295 295 295 295 295 295 294 294 293 292 291 290 289 288 287 286
268 269 269 270 270 270 271 271 271 272 272 272 273 273 273 274 274 275 275 276 277 279 280 281 282 283 285 286 287 287 288 290 291 292 293 294 294 294 295 295 295 295 295 295 295 295 296 296 296 296 296 297 297 297 297 297 297 297 296 296 296 296 296 296 295 295 296 296 296 297 297 297 297 297 297 296 296 295 294 293 293 292 291 290 289 288
268 268 269 269 269 270 270 270 270 270 271 271 271 272 272 273 274 275 276 278 279 281 283 284 285 286 287 288 289 290 291 292 292 293 294 294 294 294 295 295 295 295 295 295 295 295 296 296 296 296 296 297 297 297 297 297 296 296 296 296 296 295 296 296 296 296 297 297 297 298 298 298 299 298 298 298 297 297 296 295 295 294 293 292 291 291
267 268 268 268 269 269 269 269 269 270 270 271 271 272 273 274 276 278 279 281 282 284 285 287 288 289 289 290 291 291 292 293 293 293 293 294 294 294 294 295 295 295 294 295 295 296 296 296 296 296 297 297 297 296 296 296 296 296 296 296 296 296 296 296 297 298 298 299 299 300 300 300 300 300 300 300 299 299 298 298 297 296 296 295 294 294
267 267 267 267 268 268 269 269 269 270 271 272 273 274 275 277 279 281 282 284 285 287 288 289 289 290 292 292 292 292 293 294 293 293 293 293 293 293 293 294 295 295 295 295 296 296 296 296 296 296 297 297 297 297 296 296 296 296 296 296 297 297 298 298 299 299 300 301 301 302 302 302 302 302 302 301 301 300 300 299 299 298 298 298 297 297
265 266 266 267 268 268 269 270 271 271 272 274 276 277 279 281 282 284 285 287 288 289 290 291 291 292 292 292 292 293 294 293 293 293 293 293 293 293 294 294 295 295 295 295 296 297 297 297 297 297 297 297 297 297 297 297 297 297 297 298 298 299 299 300 301 302 302 303 303 303 303 303 303 302 302 302 301 301 300 300 300 299 299 298 298 298
265 265 267 268 268 269 270 272 273 274 275 277 279 280 282 284 285 286 288 289 290 291 291 292 292 292 292 292 292 293 293 293 292 292 293 293 293 294 294 295 295 295 295 295 296 297 298 297 297 297 298 298 298 297 297 298 298 298 299 299 300 301 301 302 303 304 304 304 304 304 303 303 303 302 302 301 301 300 300 299 299 299 299 298 298 298
265 266 268 269 270 271 272 273 275 276 278 279 281 282 284 285 287 288 289 290 290 290 291 291 291 291 291 291 291 292 291 292 292 293 293 294 294 294 295 296 296 296 296 296 297 298 298 298 297 298 299 299 298 298 298 299 299 300 300 301 302 303 303 304 304 305 305 305 304 304 303 303 302 302 301 301 300 300 299 299 299 298 298 298 298 297
266 268 269 270 271 272 273 275 276 278 280 281 283 284 286 287 288 288 289 289 289 289 289 289 289 289 290 290 291 291 291 292 293 294 294 295 295 296 296 297 297 297 297 297 298 299 299 298 298 298 299 299 299 299 299 299 300 301 302 303 303 304 304 305 305 305 304 304 304 303 302 302 301 301 300 300 299 299 298 298 298 298 298 297 297 297
267 268 269 271 272 273 274 275 277 279 281 282 284 285 286 287 288 288 287 287 288 288 289 289 289 289 290 291 291 291 292 293 294 295 295 296 296 296 296 298 299 298 297 297 299 300 300 298 298 299 300 299 299 299 300 300 301 302 303 304 304 304 305 305 304 304 304 303 303 302 302 301 301 300 300 299 299 298 298 298 298 297 297 297 297 297
267 268 269 271 272 273 274 275 277 279 281 282 284 285 285 286 287 287 286 286 287 288 288 288 289 290 291 291 292 292 293 295 296 297 297 297 297 296 297 299 300 299 297 298 299 300 300 299 299 299 299 299 299 299 300 301 302 303 303 303 304 304 304 304 304 304 303 303 302 302 301 301 300 300 299 299 298 298 298 297 297 297 297 297 297 297
267 268 269 270 271 272 273 275 277 279 280 282 283 284 284 285 286 286 286 286 287 288 288 288 289 291 292 292 293 294 295 296 297 298 298 298 297 296 297 300 300 299 298 298 299 300 299 299 299 299 299 298 298 298 299 300 301 301 302 302 303 303 303 303 303 303 303 302 302 302 301 301 300 300 299 298 298 298 298 297 297 297 297 298 298 299
267 268 269 270 271 272 274 275 277 278 280 281 282 283 283 284 285 285 285 287 288 288 288 289 290 291 292 293 294 295 296 297 297 298 299 299 297 297 298 300 300 299 299 299 299 299 298 297 297 297 297 296 296 296 297 298 299 300 300 301 301 302 302 303 303 303 303 303 302 302 301 301 300 300 299 299 299 298 298 298 298 299 299 299 300 301
267 268 269 270 271 272 274 275 277 278 279 280 281 282 283 284 284 285 286 287 288 289 289 290 291 292 293 294 295 296 296 297 297 298 299 298 297 297 299 300 299 298 298 299 298 297 296 295 294 294 293 294 294 295 296 297 298 298 299 300 301 302 302 303 303 303 303 303 303 302 302 301 301 300 300 300 300 300 300 301 301 301 302 302 303 303
269 270 270 271 272 273 275 276 277 279 280 281 282 283 284 285 286 286 287 288 289 289 290 290 291 292 293 293 294 295 295 296 296 297 298 297 296 296 298 299 298 298 298 298 298 296 295 294 293 293 293 293 294 295 296 297 297 298 299 300 301 302 303 304 304 304 304 304 304 303 303 302 302 302 302 302 303 303 304 304 305 305 305 305 305 305
270 271 271 273 274 275 276 277 278 280 281 282 283 284 285 286 287 287 288 288 289 290 290 291 291 292 293 294 294 294 295 295 296 297 297 296 295 295 297 297 297 297 298 298 298 298 297 296 296 295 295 294 294 295 296 296 297 298 299 300 302 303 304 305 305 305 305 305 305 304 304 304 304 304 305 306 306 307 308 308 308 308 308 307 307 307
271 272 273 274 276 277 278 279 280 281 282 283 284 285 286 287 287 288 288 289 289 290 290 291 292 293 294 294 295 295 295 296 297 297 296 295 294 295 296 296 296 296 298 298 298 299 299 299 298 298 297 297 296 296 297 297 298 299 301 302 303 304 305 306 306 306 306 306 306 306 306 306 306 307 308 308 309 310 310 310 310 310 309 308 308 308
272 273 275 276 277 278 279 280 281 282 283 284 284 285 286 287 287 288 288 288 289 290 290 291 292 293 294 295 295 295 296 296 296 296 296 295 295 295 296 297 297 298 299 299 300 300 300 300 300 300 299 299 299 299 300 300 301 302 303 305 306 306 307 307 307 307 307 307 306 306 306 307 307 308 309 310 310 310 311 310 310 310 309 309 308 307
274 275 276 277 278 279 280 280 281 282 283 283 284 285 286 286 287 287 288 288 289 290 291 292 293 293 293 294 294 294 294 294 294 295 295 295 296 297 298 298 299 300 300 300 301 301 301 301 301 301 301 301 301 302 303 304 305 306 307 308 308 309 309 309 308 308 308 307 307 307 307 307 308 309 309 310 310 310 310 310 309 308 308 307 307 307
274 275 276 277 278 279 280 280 281 281 282 283 283 284 285 286 286 287 287 288 289 290 291 292 293 293 293 292 292 292 292 293 293 294 295 296 297 298 299 300 301 301 302 302 302 302 303 303 303 303 303 304 304 305 306 307 308 309 310 310 311 311 310 310 310 309 309 308 308 308 308 308 308 309 309 309 309 309 309 308 307 307 306 305 305 305
274 275 276 277 277 278 279 279 280 280 281 282 282 283 284 284 285 285 286 287 288 290 291 292 292 292 292 292 292 292 292 293 294 295 296 297 298 300 300 301 302 302 303 303 303 304 304 304 305 305 306 306 307 308 309 309 310 311 312 312 312 312 312 311 311 310 310 310 310 310 309 309 309 309 309 309 308 308 307 307 306 305 304 303 303 303
273 274 275 276 276 277 277 278 278 279 280 280 281 282 282 283 283 284 285 286 287 288 289 290 290 291 291 291 291 292 292 293 294 296 297 298 299 300 301 302 303 303 304 304 305 306 306 307 307 307 308 308 309 311 311 312 312 312 313 313 313 313 313 312 312 311 311 311 311 311 310 310 309 309 309 308 308 307 306 306 305 304 303 302 302 303
272 273 274 274 275 275 276 276 277 278 278 279 279 280 281 281 282 283 284 286 286 287 288 288 288 289 290 290 291 292 292 293 295 296 298 299 300 301 302 303 304 305 306 306 307 308 308 309 309 310 310 311 311 312 313 313 313 313 313 313 313 313 313 313 312 312 312 312 312 311 311 310 309 309 309 308 308 308 307 306 305 304 304 303 303 303
271 271 272 273 273 274 274 275 276 276 276 277 277 278 278 279 281 282 283 285 286 287 288 289 289 290 291 292 292 293 294 295 296 297 298 299 300 301 303 304 305 307 308 309 309 310 310 311 311 311 312 312 313 314 314 315 314 314 314 314 314 313 313 313 313 313 313 313 312 312 311 310 310 310 310 310 309 309 309 308 308 307 306 305 305 305
269 270 270 271 272 272 273 273 274 274 274 274 275 276 277 278 279 281 283 284 286 288 289 291 292 293 293 294 294 294 294 295 295 296 298 299 300 302 304 306 307 308 310 310 311 312 312 312 312 312 313 313 314 315 316 316 316 315 315 314 314 314 314 314 314 314 313 313 313 312 311 311 311 311 311 311 311 311 311 311 310 309 308 308 307 307
267 268 269 270 270 270 271 271 271 271 272 272 274 275 277 278 279 280 281 283 285 287 289 291 292 292 293 293 293 293 293 294 295 297 299 301 303 305 307 308 310 311 312 312 313 313 313 313 313 313 314 314 315 316 316 316 316 316 315 315 314 314 314 314 314 314 314 314 314 313 312 312 312 312 312 312 313 313 313 313 312 312 311 310 309 309
266 266 267 268 268 268 268 268 269 270 271 272 274 275 276 277 278 280 281 284 286 288 290 292 293 294 294 295 295 296 296 297 299 301 303 305 307 308 310 311 312 313 313 314 314 314 314 314 314 314 314 315 316 316 317 317 317 316 315 315 314 314 315 315 315 315 315 315 314 314 313 313 312 313 313 314 314 314 314 314 313 313 312 311 310 310
264 265 265 266 266 266 267 267 268 270 271 273 274 275 277 278 279 281 283 285 288 289 291 293 294 295 296 297 298 299 301 303 305 307 308 309 310 311 311 312 313 313 314 314 314 314 314 314 314 314 315 316 316 317 317 317 317 316 315 315 314 315 315 315 316 315 315 315 315 314 313 313 313 313 313 314 315 315 315 315 315 313 312 311 311 310
262 263 263 264 264 265 266 267 268 270 271 273 275 276 278 279 282 284 286 288 290 291 292 293 294 295 295 296 297 299 301 303 305 307 307 308 309 309 310 311 312 313 313 314 314 314 314 314 314 314 315 316 316 317 317 317 316 316 315 314 314 314 315 315 316 316 316 315 315 314 313 313 312 313 313 314 315 316 317 316 315 314 313 312 311 311
260 261 261 262 263 264 266 267 269 270 272 273 275 277 279 282 285 287 288 290 291 292 292 292 293 293 294 294 296 297 298 300 301 302 304 304 305 306 307 308 309 310 312 312 312 313 313 313 313 314 315 315 316 317 317 316 316 315 314 314 314 314 315 315 316 315 315 315 314 314 313 313 313 313 314 315 316 317 318 317 316 315 314 312 312 312
258 259 259 261 262 264 266 267 269 270 272 273 276 278 281 283 286 288 289 290 291 291 291 291 291 292 292 293 294 295 296 297 298 299 300 301 302 303 304 306 307 308 309 310 310 311 311 312 313 314 315 315 316 316 316 315 314 314 313 313 313 313 314 315 315 315 314 314 314 314 313 313 313 313 314 315 317 318 318 318 317 316 314 314 313 314
256 257 258 260 262 264 266 267 269 270 272 274 277 279 282 284 286 287 288 289 289 290 290 290 290 291 292 293 294 294 295 296 296 297 298 299 300 301 303 304 306 307 307 308 309 309 310 311 312 313 314 315 315 315 315 314 313 312 312 312 312 313 314 314 314 314 314 314 314 314 314 314 314 315 315 316 317 318 319 319 318 317 316 315 315 316
254 255 257 259 262 264 266 268 270 272 274 276 278 280 282 283 284 285 286 287 287 288 288 288 289 290 291 292 293 294 295 295 296 296 297 298 299 301 302 303 304 306 306 307 307 308 309 311 312 313 313 314 314 314 314 313 312 311 311 311 312 313 313 314 314 313 313 313 313 314 314 315 315 316 316 317 318 318 319 320 319 319 318 317 317 318
253 255 257 259 261 264 266 268 271 273 275 277 278 279 281 282 283 283 284 285 285 286 286 287 288 290 290 292 292 293 294 294 295 296 297 298 299 300 302 303 304 305 305 306 307 307 309 310 311 312 313 313 313 313 313 312 312 311 311 311 312 312 313 313 313 313 313 313 314 314 315 316 316 316 317 317 318 319 320 321 321 321 320 319 319 320
254 256 258 260 262 265 267 270 272 274 276 277 279 280 281 281 282 282 283 283 284 284 285 286 287 289 290 291 292 292 293 294 295 296 297 298 300 301 302 304 304 305 305 306 307 307 308 309 311 312 313 313 313 314 314 313 312 311 311 311 312 312 313 313 313 313 313 314 315 315 316 317 317 317 317 318 318 320 321 322 323 323 322 321 321 321
Height
3087 3087 3087 3087 3088 3088 3088 3089 3089 3089 3089 3089 3089 3089 3089 3089 3089 3089 3089 3088 3088 3088 3088 3088 3087 3087 3087 3087 3086 3086 3085 3085 3085 3085 3084 3084 3084 3083 3083 3082 3082 3081 3081 3080 3079 3079 3078 3078 3077 3075 3074 3074 3072 3071 3070 3069 3068 3066 3065 3064 3062 3061 3060 3058 3057 3055 3054 3053 3051 3049 3048 3047 3045 3044 3042 3041 3039 3038 3037 3035 3034 3033 3031 3030 3029 3028
3085 3085 3085 3085 3086 3086 3086 3087 3087 3087 3087 3087 3087 3087 3087 3087 3086 3086 3086 3086 3085 3085 3085 3085 3085 3084 3084 3084 3084 3083 3083 3083 3082 3082 3082 3081 3081 3080 3080 3079 3079 3079 3078 3077 3077 3076 3075 3074 3073 3072 3071 3070 3069 3068 3067 3065 3064 3063 3061 3060 3059 3058 3056 3055 3054 3052 3050 3049 3048 3046 3044 3043 3041 3040 3039 3037 3035 3034 3033 3031 3030 3029 3027 3026 3025 3024
3083 3084 3084 3084 3084 3084 3084 3085 3085 3085 3085 3085 3085 3085 3084 3084 3084 3084 3084 3083 3083 3083 3083 3083 3082 3082 3082 3081 3081 3081 3080 3080 3080 3079 3079 3079 3078 3078 3077 3077 3076 3075 3075 3074 3073 3073 3072 3071 3070 3069 3068 3067 3065 3064 3063 3062 3060 3059 3058 3057 3055 3054 3053 3051 3050 3048 3047 3045 3044 3042 3041 3039 3038 3036 3035 3033 3032 3030 3029 3028 3026 3025 3024 3023 3021 3020
3082 3082 3082 3083 3083 3083 3083 3083 3083 3083 3083 3083 3083 3083 3082 3082 3082 3082 3082 3081 3081 3081 3080 3080 3080 3079 3079 3079 3079 3078 3078 3077 3077 3077 3076 3076 3075 3075 3074 3074 3073 3072 3072 3071 3070 3069 3068 3067 3066 3065 3064 3063 3062 3060 3059 3058 3057 3055 3054 3053 3052 3050 3049 3047 3046 3044 3043 3041 3040 3039 3037 3035 3034 3033 3031 3029 3028 3027 3025 3024 3023 3021 3020 3019 3018 3017
3080 3080 3080 3081 3081 3080 3081 3081 3081 3081 3080 3080 3080 3080 3080 3080 3080 3079 3079 3079 3079 3078 3078 3078 3077 3077 3077 3076 3076 3076 3076 3075 3074 3074 3074 3073 3073 3072 3071 3071 3070 3069 3068 3067 3066 3065 3064 3063 3062 3061 3060 3059 3058 3057 3055 3054 3053 3052 3050 3049 3048 3046 3045 3043 3042 3040 3039 3037 3036 3034 3033 3032 3030 3029 3027 3026 3024 3023 3022 3020 3019 3018 3016 3015 3014 3014
3078 3078 3078 3078 3078 3078 3078 3078 3078 3078 3078 3078 3078 3078 3077 3077 3077 3077 3076 3076 3076 3076 3075 3075 3075 3075 3074 3074 3074 3074 3074 3073 3072 3071 3071 3070 3069 3069 3068 3067 3066 3065 3064 3064 3063 3062 3061 3059 3059 3057 3056 3055 3054 3053 3052 3050 3049 3048 3047 3045 3044 3042 3041 3039 3038 3036 3035 3033 3032 3030 3029 3028 3026 3025 3023 3022 3021 3019 3018 3017 3015 3014 3013 3012 3011 3010
3075 3075 3075 3075 3075 3075 3075 3075 3075 3075 3075 3075 3074 3074 3074 3074 3074 3074 3074 3074 3074 3074 3073 3073 3073 3073 3072 3072 3072 3071 3071 3070 3069 3069 3068 3067 3066 3065 3065 3064 3063 3062 3061 3060 3059 3058 3057 3056 3055 3054 3052 3051 3050 3049 3048 3047 3045 3044 3043 3041 3039 3038 3037 3035 3034 3032 3031 3029 3028 3026 3025 3024 3022 3021 3019 3018 3017 3016 3014 3013 3012 3011 3009 3009 3008 3007
3073 3072 3072 3072 3072 3072 3072 3072 3072 3072 3072 3072 3072 3072 3072 3072 3072 3072 3071 3071 3071 3071 3071 3071 3070 3070 3069 3069 3069 3068 3068 3067 3066 3066 3065 3064 3063 3063 3062 3061 3060 3059 3058 3057 3055 3054 3053 3052 3051 3050 3049 3048 3046 3045 3044 3043 3041 3040 3039 3037 3036 3034 3033 3031 3030 3029 3027 3026 3024 3023 3021 3020 3018 3017 3016 3014 3013 3012 3011 3010 3009 3008 3007 3005 3005 3004
3069 3069 3069 3069 3069 3069 3069 3069 3069 3069 3069 3069 3069 3069 3069 3069 3069 3069 3069 3069 3069 3069 3069 3068 3067 3067 3066 3066 3066 3065 3064 3064 3063 3063 3062 3061 3060 3059 3059 3058 3056 3055 3054 3053 3052 3051 3049 3048 3047 3046 3045 3044 3043 3041 3040 3039 3038 3036 3034 3033 3032 3030 3029 3028 3026 3025 3023 3022 3020 3019 3018 3016 3015 3014 3012 3011 3010 3009 3008 3007 3005 3004 3004 3003 3002 3001
3066 3067 3067 3066 3067 3067 3067 3067 3067 3067 3067 3067 3066 3066 3067 3067 3067 3066 3066 3066 3066 3066 3066 3065 3064 3064 3063 3063 3063 3062 3061 3060 3060 3059 3059 3058 3057 3056 3055 3054 3053 3052 3050 3049 3048 3047 3046 3044 3044 3042 3041 3040 3039 3038 3036 3035 3034 3032 3031 3029 3028 3027 3025 3024 3022 3021 3019 3018 3017 3015 3014 3013 3011 3010 3009 3008 3006 3005 3004 3004 3003 3002 3001 3000 2999 2998
3064 3064 3064 3064 3064 3064 3064 3064 3064 3064 3064 3064 3064 3064 3064 3064 3064 3064 3064 3063 3063 3063 3063 3062 3061 3061 3060 3059 3059 3059 3058 3057 3056 3055 3055 3054 3053 3052 3051 3050 3049 3048 3047 3046 3044 3043 3042 3041 3040 3039 3037 3036 3035 3034 3032 3031 3029 3028 3027 3025 3024 3023 3021 3020 3019 3017 3016 3014 3013 3012 3010 3009 3008 3007 3006 3004 3004 3002 3001 3000 3000 2999 2998 2997 2996 2995
3061 3061 3061 3061 3061 3061 3061 3061 3061 3061 3061 3061 3061 3061 3061 3061 3061 3061 3060 3060 3060 3060 3059 3059 3058 3057 3057 3057 3055 3055 3054 3054 3053 3052 3051 3050 3049 3049 3048 3046 3045 3044 3043 3042 3041 3039 3038 3037 3036 3034 3033 3032 3031 3029 3028 3027 3025 3024 3023 3021 3020 3019 3017 3016 3014 3013 3012 3011 3009 3008 3007 3006 3005 3004 3003 3002 3001 2999 2999 2998 2997 2996 2995 2994 2994 2993
3058 3058 3058 3058 3058 3058 3058 3058 3058 3058 3058 3058 3058 3058 3058 3058 3058 3058 3057 3057 3056 3056 3056 3055 3054 3054 3054 3054 3053 3051 3051 3050 3049 3048 3048 3046 3046 3045 3044 3043 3041 3040 3039 3039 3037 3035 3034 3033 3032 3030 3029 3028 3027 3025 3024 3023 3021 3020 3019 3018 3016 3015 3014 3012 3011 3010 3009 3007 3006 3005 3004 3003 3002 3001 3000 2999 2998 2997 2996 2995 2994 2993 2993 2992 2991 2990
3055 3055 3055 3055 3055 3055 3055 3055 3055 3055 3055 3055 3055 3055 3055 3054 3054 3054 3054 3053 3053 3053 3053 3052 3051 3050 3050 3050 3049 3048 3047 3046 3046 3045 3044 3043 3042 3042 3041 3040 3038 3036 3036 3035 3034 3031 3030 3029 3028 3027 3025 3024 3023 3021 3020 3019 3017 3016 3015 3014 3012 3011 3010 3009 3008 3007 3005 3004 3003 3002 3001 3000 2999 2998 2997 2996 2995 2994 2994 2993 2992 2991 2990 2989 2988 2988
3052 3052 3052 3052 3052 3052 3052 3052 3052 3052 3052 3052 3052 3052 3051 3051 3051 3051 3051 3050 3049 3049 3049 3049 3048 3047 3047 3047 3046 3045 3044 3043 3042 3042 3041 3040 3039 3038 3038 3037 3034 3032 3031 3031 3030 3028 3026 3025 3024 3023 3021 3020 3019 3018 3016 3015 3014 3013 3011 3010 3009 3008 3007 3006 3004 3004 3002 3001 3000 2999 2998 2997 2996 2996 2994 2994 2993 2992 2991 2990 2989 2988 2987 2986 2986 2985
3050 3050 3049 3049 3049 3049 3049 3049 3049 3049 3049 3049 3049 3049 3049 3048 3048 3048 3048 3047 3046 3046 3046 3046 3045 3044 3043 3043 3043 3043 3042 3040 3039 3038 3038 3037 3035 3034 3035 3034 3032 3029 3027 3027 3027 3025 3023 3022 3021 3019 3018 3017 3015 3014 3013 3012 3011 3009 3009 3007 3006 3005 3004 3003 3002 3001 3000 2999 2998 2997 2996 2995 2994 2993 2992 2991 2990 2989 2988 2987 2987 2986 2985 2984 2983 2982
3047 3047 3047 3047 3047 3047 3047 3047 3047 3046 3046 3046 3046 3046 3046 3045 3045 3045 3045 3044 3044 3043 3043 3043 3042 3041 3040 3039 3040 3040 3040 3038 3036 3034 3034 3034 3032 3031 3031 3031 3029 3026 3024 3024 3023 3022 3020 3019 3017 3016 3015 3014 3013 3011 3010 3009 3008 3007 3006 3005 3004 3003 3001 3000 2999 2998 2997 2996 2995 2994 2993 2992 2991 2990 2989 2989 2988 2987 2986 2985 2984 2983 2982 2981 2980 2979
3044 3044 3044 3044 3044 3044 3044 3044 3044 3044 3044 3044 3044 3043 3043 3043 3042 3042 3042 3041 3041 3041 3040 3040 3039 3039 3038 3036 3035 3036 3037 3036 3034 3031 3030 3030 3029 3028 3028 3027 3026 3023 3021 3020 3019 3019 3017 3015 3014 3013 3012 3011 3010 3009 3007 3006 3005 3004 3003 3002 3001 3000 2999 2998 2997 2996 2995 2994 2993 2992 2991 2990 2989 2988 2987 2986 2985 2984 2983 2982 2981 2980 2979 2979 2978 2977
3042 3042 3042 3042 3042 3042 3042 3042 3042 3041 3041 3041 3041 3040 3040 3039 3039 3039 3039 3038 3038 3038 3038 3037 3036 3035 3035 3034 3033 3032 3033 3034 3032 3029 3028 3027 3026 3025 3024 3024 3023 3020 3018 3017 3016 3015 3014 3012 3011 3010 3009 3008 3007 3006 3005 3004 3003 3002 3001 3000 2999 2998 2997 2995 2994 2994 2992 2991 2990 2989 2989 2987 2986 2985 2984 2983 2982 2981 2980 2979 2978 2977 2977 2976 2975 2974
3039 3039 3040 3040 3039 3039 3039 3039 3039 3039 3039 3038 3038 3038 3037 3037 3037 3037 3036 3036 3035 3035 3034 3034 3033 3033 3032 3032 3030 3029 3029 3030 3029 3027 3025 3024 3023 3022 3021 3021 3020 3017 3015 3013 3013 3013 3012 3010 3008 3007 3006 3006 3005 3004 3002 3001 3000 2999 2998 2997 2996 2995 2994 2993 2992 2991 2990 2989 2988 2987 2986 2985 2984 2983 2982 2981 2979 2979 2978 2976 2975 2974 2974 2973 2972 2971
3037 3037 3037 3037 3037 3037 3037 3037 3037 3037 3036 3036 3035 3035 3035 3034 3034 3034 3033 3033 3033 3032 3031 3031 3031 3030 3029 3029 3028 3027 3026 3027 3026 3024 3022 3021 3020 3019 3018 3019 3017 3015 3012 3010 3010 3010 3009 3007 3005 3004 3004 3003 3002 3001 3000 2999 2998 2997 2996 2995 2994 2993 2992 2991 2990 2989 2988 2987 2986 2985 2984 2982 2981 2980 2979 2978 2977 2976 2974 2974 2972 2971 2970 2969 2969 2968
3035 3034 3035 3035 3035 3035 3034 3034 3034 3034 3034 3034 3033 3032 3032 3032 3032 3031 3031 3031 3030 3030 3029 3028 3028 3027 3027 3026 3025 3024 3023 3024 3023 3022 3020 3019 3017 3015 3015 3016 3015 3013 3009 3008 3007 3007 3006 3005 3003 3002 3002 3001 3000 2999 2997 2996 2995 2994 2994 2992 2991 2990 2989 2989 2988 2987 2985 2984 2983 2982 2981 2980 2979 2978 2976 2975 2974 2973 2972 2970 2969 2968 2967 2966 2965 2964
3032 3032 3032 3033 3033 3032 3032 3032 3031 3031 3031 3031 3031 3030 3030 3030 3030 3029 3028 3028 3028 3027 3026 3026 3025 3024 3024 3024 3023 3021 3020 3020 3020 3019 3018 3016 3014 3012 3012 3013 3012 3010 3007 3006 3005 3005 3004 3002 3001 3000 2999 2999 2998 2996 2995 2994 2993 2992 2991 2990 2989 2988 2987 2986 2985 2984 2983 2982 2981 2979 2979 2977 2976 2975 2974 2972 2971 2970 2969 2968 2966 2965 2964 2963 2962 2961
3030 3030 3030 3030 3030 3030 3029 3029 3029 3029 3029 3029 3028 3028 3028 3028 3027 3027 3026 3026 3025 3025 3024 3023 3022 3021 3021 3021 3020 3019 3017 3017 3017 3016 3015 3013 3011 3010 3009 3010 3009 3008 3005 3003 3003 3003 3002 3000 2999 2998 2998 2997 2995 2994 2993 2992 2991 2990 2989 2988 2987 2986 2985 2984 2983 2982 2981 2979 2978 2977 2976 2974 2973 2972 2971 2969 2968 2967 2966 2965 2964 2963 2962 2960 2959 2959
3027 3027 3027 3027 3027 3027 3027 3027 3027 3027 3026 3026 3026 3025 3025 3025 3025 3024 3024 3023 3023 3022 3021 3021 3019 3019 3018 3018 3017 3016 3015 3014 3014 3014 3012 3011 3009 3007 3006 3007 3007 3006 3003 3001 3001 3001 3001 2999 2997 2996 2996 2995 2994 2992 2991 2990 2989 2988 2987 2986 2985 2984 2983 2982 2981 2979 2978 2977 2976 2974 2973 2972 2970 2969 2968 2967 2965 2964 2963 2962 2961 2960 2959 2958 2957 2956
3025 3025 3025 3025 3025 3025 3025 3025 3024 3024 3024 3024 3024 3023 3023 3023 3022 3022 3021 3020 3020 3020 3019 3018 3017 3016 3015 3015 3014 3013 3012 3012 3011 3011 3010 3009 3007 3004 3003 3004 3004 3004 3001 2999 2999 2999 2999 2998 2996 2995 2994 2993 2992 2991 2989 2988 2987 2986 2985 2984 2983 2982 2981 2979 2978 2977 2976 2974 2973 2972 2970 2969 2968 2967 2965 2964 2963 2962 2960 2959 2958 2957 2956 2955 2954 2953
3022 3022 3022 3023 3023 3023 3023 3023 3023 3022 3022 3022 3021 3021 3021 3020 3020 3019 3018 3018 3018 3017 3016 3015 3014 3013 3013 3013 3012 3011 3010 3009 3009 3008 3007 3006 3005 3003 3001 3001 3002 3001 3000 2999 2998 2998 2998 2997 2995 2994 2993 2991 2990 2989 2988 2987 2985 2984 2983 2982 2981 2980 2979 2977 2976 2975 2974 2972 2971 2969 2968 2967 2965 2964 2963 2961 2960 2959 2958 2957 2955 2954 2953 2952 2951 2950
3020 3020 3020 3020 3020 3020 3020 3020 3020 3020 3020 3019 3019 3018 3018 3018 3018 3016 3015 3015 3015 3015 3014 3012 3012 3011 3010 3009 3009 3008 3008 3008 3006 3005 3004 3004 3002 3000 2999 3000 2999 2999 2998 2997 2997 2996 2996 2995 2994 2993 2992 2990 2989 2988 2987 2985 2984 2983 2981 2980 2979 2978 2977 2975 2974 2973 2971 2970 2969 2967 2966 2964 2963 2962 2960 2959 2958 2957 2955 2954 2953 2952 2951 2949 2949 2947
3018 3018 3018 3018 3018 3018 3018 3018 3018 3018 3018 3017 3017 3016 3016 3016 3015 3014 3013 3013 3013 3013 3011 3010 3009 3009 3009 3007 3006 3005 3005 3005 3004 3003 3002 3001 2999 2998 2998 2999 2998 2997 2996 2996 2996 2995 2994 2994 2994 2993 2991 2989 2988 2986 2985 2984 2983 2982 2980 2979 2977 2976 2975 2973 2972 2970 2969 2968 2966 2965 2964 2962 2961 2959 2958 2957 2955 2954 2953 2952 2950 2949 2948 2947 2946 2944
3016 3016 3016 3016 3016 3016 3016 3016 3016 3015 3015 3015 3014 3014 3013 3013 3013 3012 3011 3010 3010 3010 3009 3008 3007 3007 3006 3006 3004 3003 3003 3003 3002 3002 3001 2999 2998 2997 2997 2997 2996 2995 2994 2994 2994 2994 2993 2993 2993 2992 2991 2989 2987 2985 2984 2983 2982 2980 2979 2977 2976 2974 2973 2971 2970 2969 2967 2965 2964 2963 2961 2960 2959 2957 2956 2954 2953 2952 2950 2949 2948 2946 2945 2944 2943 2941
3014 3014 3014 3014 3014 3014 3014 3014 3013 3013 3013 3013 3012 3012 3011 3011 3010 3010 3009 3008 3008 3007 3007 3006 3005 3005 3004 3004 3003 3002 3001 3000 3000 3000 2999 2998 2996 2995 2995 2995 2994 2993 2993 2993 2993 2992 2992 2991 2991 2990 2990 2988 2986 2984 2983 2981 2980 2979 2977 2976 2974 2973 2971 2970 2968 2967 2965 2964 2962 2960 2959 2958 2956 2955 2954 2952 2951 2949 2948 2946 2945 2944 2942 2941 2940 2939
3012 3012 3012 3012 3011 3012 3011 3011 3011 3011 3010 3010 3010 3009 3009 3008 3008 3007 3007 3006 3005 3005 3004 3004 3003 3003 3002 3002 3001 3000 2999 2999 2998 2998 2998 2997 2995 2994 2994 2994 2993 2992 2991 2991 2990 2990 2989 2989 2989 2988 2988 2987 2985 2983 2981 2979 2978 2977 2975 2974 2973 2971 2969 2968 2966 2965 2963 2962 2960 2959 2957 2955 2954 2953 2951 2950 2949 2947 2946 2944 2943 2941 2939 2938 2937 2936
3010 3010 3009 3009 3009 3009 3009 3009 3009 3009 3008 3008 3007 3007 3006 3006 3005 3005 3004 3004 3003 3003 3002 3002 3001 3000 3000 2999 2999 2998 2998 2997 2996 2996 2996 2995 2994 2993 2993 2992 2992 2990 2989 2989 2989 2988 2987 2986 2986 2985 2985 2984 2983 2981 2979 2978 2976 2974 2973 2972 2970 2969 2967 2966 2964 2963 2961 2960 2958 2957 2955 2954 2952 2951 2949 2948 2947 2945 2944 2942 2940 2939 2937 2936 2934 2933
3008 3008 3007 3007 3007 3007 3007 3007 3006 3006 3006 3005 3005 3004 3004 3004 3003 3003 3002 3002 3001 3001 3000 3000 2999 2999 2998 2997 2997 2996 2996 2995 2995 2994 2994 2993 2993 2992 2991 2990 2990 2989 2988 2987 2986 2986 2985 2984 2983 2983 2982 2982 2981 2979 2978 2975 2974 2972 2971 2970 2968 2967 2965 2964 2963 2961 2959 2958 2957 2955 2954 2952 2951 2949 2948 2946 2945 2944 2942 2940 2939 2937 2935 2934 2932 2931
3005 3005 3005 3005 3005 3005 3004 3004 3004 3004 3004 3003 3003 3002 3002 3001 3001 3000 3000 2999 2999 2999 2998 2998 2998 2997 2996 2996 2995 2994 2994 2994 2993 2993 2992 2992 2991 2990 2989 2989 2988 2987 2986 2985 2984 2984 2983 2982 2981 2980 2979 2979 2978 2977 2975 2974 2971 2970 2968 2967 2966 2964 2963 2962 2960 2959 2958 2956 2955 2953 2952 2950 2949 2948 2946 2945 2944 2942 2940 2939 2938 2936 2934 2932 2930 2929
3003 3003 3003 3003 3003 3002 3002 3002 3002 3002 3001 3001 3000 3000 3000 2999 2999 2999 2998 2998 2997 2997 2996 2996 2996 2995 2995 2994 2994 2993 2992 2992 2991 2991 2990 2990 2989 2989 2988 2987 2986 2985 2984 2983 2982 2982 2981 2979 2979 2978 2977 2976 2974 2974 2973 2971 2969 2968 2966 2965 2963 2962 2960 2959 2958 2957 2955 2954 2953 2952 2950 2949 2948 2946 2945 2944 2942 2941 2939 2938 2936 2934 2933 2931 2929 2927
3000 3000 3000 3000 3000 3000 3000 3000 2999 2999 2999 2999 2998 2998 2998 2998 2997 2997 2996 2996 2995 2995 2995 2994 2994 2994 2993 2993 2992 2991 2991 2990 2989 2989 2989 2988 2988 2987 2986 2985 2984 2984 2983 2981 2980 2979 2978 2977 2976 2975 2974 2973 2972 2970 2969 2968 2967 2966 2964 2963 2961 2959 2958 2957 2955 2954 2953 2952 2951 2949 2948 2947 2946 2944 2943 2942 2940 2939 2938 2936 2934 2933 2931 2929 2928 2926
2998 2998 2998 2998 2998 2998 2998 2998 2997 2997 2997 2997 2996 2996 2996 2996 2995 2995 2995 2994 2994 2994 2993 2993 2992 2992 2991 2991 2990 2989 2989 2988 2988 2987 2987 2986 2986 2985 2984 2984 2983 2982 2981 2979 2978 2977 2976 2974 2973 2972 2971 2970 2969 2968 2967 2965 2964 2963 2962 2961 2959 2957 2956 2954 2953 2952 2950 2949 2948 2947 2946 2945 2944 2943 2941 2940 2939 2938 2936 2935 2933 2931 2930 2928 2926 2925
2996 2996 2996 2996 2996 2996 2996 2995 2995 2995 2995 2995 2994 2994 2994 2994 2994 2994 2993 2993 2992 2992 2992 2991 2991 2990 2990 2989 2989 2988 2988 2987 2986 2986 2985 2984 2984 2983 2983 2982 2981 2979 2979 2978 2976 2975 2974 2972 2971 2970 2969 2968 2967 2966 2964 2963 2962 2960 2959 2959 2957 2956 2954 2952 2951 2949 2948 2947 2946 2945 2944 2943 2942 2941 2939 2938 2937 2936 2934 2933 2931 2929 2928 2926 2925 2924
2994 2994 2994 2994 2994 2994 2994 2994 2994 2994 2993 2993 2993 2993 2993 2992 2992 2992 2991 2991 2991 2990 2990 2989 2989 2989 2988 2988 2987 2987 2986 2985 2985 2984 2983 2983 2982 2981 2981 2980 2979 2978 2977 2976 2974 2973 2972 2970 2969 2968 2967 2965 2964 2963 2962 2961 2959 2958 2957 2956 2955 2954 2952 2950 2949 2947 2946 2945 2944 2943 2942 2941 2940 2939 2937 2936 2935 2934 2932 2930 2929 2927 2925 2924 2922 2921
2992 2992 2992 2992 2992 2992 2992 2992 2992 2992 2991 2991 2991 2991 2991 2991 2990 2990 2990 2989 2989 2989 2988 2988 2987 2987 2986 2986 2985 2985 2984 2984 2983 2982 2982 2981 2980 2979 2979 2978 2977 2976 2975 2974 2973 2971 2970 2968 2967 2965 2964 2963 2962 2961 2960 2959 2957 2956 2954 2953 2952 2951 2950 2949 2947 2945 2944 2943 2942 2940 2939 2938 2937 2936 2935 2934 2933 2931 2929 2928 2926 2924 2923 2921 2919 2918
2990 2990 2990 2990 2990 2990 2990 2990 2990 2990 2990 2989 2989 2989 2989 2989 2989 2989 2988 2988 2987 2987 2986 2986 2985 2985 2985 2984 2984 2984 2983 2982 2981 2980 2980 2979 2978 2977 2976 2975 2975 2974 2973 2972 2971 2969 2968 2967 2965 2964 2962 2961 2960 2959 2958 2957 2955 2954 2952 2951 2949 2948 2948 2946 2945 2943 2942 2940 2939 2938 2937 2936 2935 2934 2933 2932 2930 2929 2927 2926 2924 2922 2920 2919 2917 2915
2988 2988 2988 2988 2989 2989 2989 2988 2988 2988 2988 2988 2988 2988 2987 2987 2987 2987 2986 2986 2985 2985 2984 2984 2984 2983 2983 2982 2982 2981 2980 2980 2979 2978 2977 2976 2975 2975 2974 2973 2972 2972 2971 2970 2969 2968 2966 2965 2963 2962 2960 2959 2958 2957 2956 2954 2953 2952 2950 2949 2947 2946 2945 2944 2943 2942 2940 2939 2937 2935 2934 2933 2932 2931 2930 2929 2928 2927 2925 2924 2922 2920 2918 2916 2914 2913
2986 2986 2986 2987 2987 2987 2987 2987 2987 2987 2986 2986 2986 2986 2986 2985 2985 2985 2985 2984 2984 2984 2983 2983 2982 2982 2981 2980 2980 2979 2978 2977 2976 2975 2974 2974 2973 2972 2972 2971 2970 2969 2969 2968 2967 2965 2964 2963 2962 2960 2959 2957 2956 2955 2954 2953 2951 2950 2948 2947 2945 2944 2942 2941 2940 2939 2938 2937 2935 2934 2932 2930 2929 2928 2928 2927 2926 2924 2923 2921 2919 2918 2916 2914 2912 2910
2984 2984 2985 2985 2985 2985 2985 2985 2985 2985 2985 2985 2985 2984 2984 2984 2984 2983 2983 2983 2982 2982 2982 2981 2981 2980 2979 2979 2978 2977 2976 2975 2974 2974 2973 2972 2971 2970 2970 2969 2969 2968 2967 2966 2965 2964 2962 2961 2960 2959 2957 2956 2954 2953 2952 2950 2949 2948 2946 2945 2943 2942 2940 2939 2938 2937 2935 2934 2933 2931 2930 2928 2927 2926 2925 2924 2923 2922 2921 2919 2917 2915 2914 2912 2910 2909
2983 2983 2983 2983 2984 2984 2984 2984 2984 2984 2984 2984 2983 2983 2983 2982 2982 2982 2981 2981 2981 2980 2980 2980 2979 2979 2978 2978 2977 2976 2975 2974 2974 2973 2972 2971 2970 2969 2969 2968 2967 2966 2965 2964 2963 2962 2961 2959 2958 2957 2955 2954 2953 2952 2950 2949 2947 2945 2944 2943 2941 2940 2939 2938 2936 2935 2933 2932 2931 2929 2928 2926 2924 2923 2922 2921 2921 2920 2919 2917 2915 2913 2911 2909 2908 2906
2981 2981 2982 2982 2982 2982 2982 2982 2982 2982 2982 2982 2982 2982 2981 2981 2981 2980 2980 2980 2979 2979 2979 2978 2978 2977 2977 2976 2975 2975 2974 2973 2972 2972 2971 2970 2969 2968 2967 2966 2965 2964 2964 2962 2961 2960 2959 2958 2956 2955 2954 2953 2951 2950 2949 2947 2945 2944 2942 2940 2939 2938 2937 2936 2935 2933 2932 2930 2929 2927 2925 2924 2922 2921 2919 2919 2918 2917 2916 2915 2913 2911 2909 2907 2905 2904
2980 2980 2980 2980 2980 2981 2981 2981 2981 2981 2981 2981 2980 2980 2980 2979 2979 2979 2979 2979 2978 2978 2977 2977 2976 2976 2975 2974 2974 2973 2973 2972 2971 2970 2969 2969 2968 2967 2966 2965 2964 2963 2962 2961 2960 2959 2957 2956 2955 2954 2952 2951 2950 2949 2947 2946 2944 2942 2940 2939 2937 2936 2935 2934 2933 2932 2930 2929 2927 2925 2923 2921 2919 2918 2917 2916 2915 2914 2914 2913 2911 2909 2907 2904 2903 2901
2979 2979 2979 2979 2979 2979 2979 2979 2979 2979 2979 2979 2979 2979 2979 2978 2978 2978 2977 2977 2977 2976 2976 2975 2975 2974 2974 2973 2972 2971 2971 2970 2969 2969 2968 2967 2966 2965 2964 2964 2962 2961 2960 2959 2958 2957 2956 2955 2954 2952 2951 2950 2948 2947 2946 2944 2942 2940 2939 2937 2936 2934 2933 2932 2931 2930 2929 2927 2925 2924 2922 2919 2917 2915 2914 2913 2912 2911 2911 2910 2909 2907 2904 2902 2900 2899
2977 2977 2977 2978 2978 2978 2978 2978 2978 2978 2978 2977 2977 2977 2977 2977 2977 2976 2976 2976 2975 2975 2974 2974 2973 2973 2972 2971 2970 2970 2969 2968 2967 2967 2966 2965 2964 2964 2963 2962 2961 2959 2959 2957 2956 2955 2954 2953 2952 2951 2949 2948 2947 2945 2944 2942 2941 2939 2937 2935 2934 2933 2931 2930 2929 2928 2926 2925 2923 2922 2920 2918 2916 2914 2912 2910 2909 2908 2908 2907 2906 2904 2902 2900 2898 2896
2975 2976 2976 2976 2976 2976 2976 2976 2976 2976 2976 2976 2976 2975 2975 2975 2975 2975 2974 2974 2974 2973 2973 2972 2972 2971 2970 2969 2969 2968 2967 2966 2966 2965 2964 2963 2962 2961 2960 2959 2959 2957 2956 2955 2954 2954 2953 2952 2951 2950 2949 2946 2945 2944 2942 2940 2939 2937 2935 2934 2933 2931 2929 2928 2927 2925 2924 2923 2921 2919 2918 2916 2914 2912 2910 2908 2906 2905 2904 2904 2903 2901 2899 2898 2895 2894